State College, PA

9:41 AM EDT on July 22, 2017 (GMT -0400)
University Park

Weather History for KUNV - October, 2011

Change the Weather History Date:

Saturday, October 8, 2011

  Actual Average Record
Temperature  
Mean Temperature 58 °F -  
Max Temperature 73 °F 61 °F 87 °F (2007)
Min Temperature 42 °F 42 °F 27 °F (1935)
Degree Days  
Heating Degree Days 8    
Growing Degree Days 8 (Base 50)    
Moisture  
Dew Point 47 °F    
Average Humidity 82    
Maximum Humidity 100    
Minimum Humidity 38    
Precipitation  
Precipitation 0.00 in - - ()
Sea Level Pressure  
Sea Level Pressure 30.49 in    
Wind  
Wind Speed 1 mph (SW)    
Max Wind Speed 6 mph    
Max Gust Speed -    
Visibility 8 miles    
Events      
Averages and records for this station are not official NWS values.
T = Trace of Precipitation, MM = Missing Value Source: NWS Daily Summary

Daily Weather History Graph

Daily Weather History Graph

Search for Another Location

Airport or City:

Trip Planner

Search our weather history database for the weather conditions in past years. The results will help you decide how hot, cold, wet, or windy it might be!

Date:

Astronomy

Oct. 08, 2011 Rise Set
Actual Time 7:14 AM EDT 6:42 PM EDT
Civil Twilight 6:47 AM EDT 7:09 PM EDT
Nautical Twilight 6:15 AM EDT 7:41 PM EDT
Astronomical Twilight 5:43 AM EDT 8:13 PM EDT
Moon 4:52 PM EDT (10/8) 3:59 AM EDT (10/8)
Length of Visible Light 12h 22m
Length of Day
11h 27m
Waxing Gibbous, 90% of the Moon is Illuminated
Oct 8
Waxing Gibbous
Oct 11
Full
Oct 19
Last Quarter
Oct 26
New
Nov 2
First Quarter

Hourly Weather History & Observations

Time (EDT) Temp. Windchill Dew Point Humidity Pressure Visibility Wind Dir Wind Speed Gust Speed Precip Events Conditions
12:15 AM 50.0 °F - 44.6 °F 82% 30.48 in 10.0 mi Calm Calm - N/A   Clear
12:35 AM 50.0 °F - 44.6 °F 82% 30.48 in 10.0 mi Calm Calm - N/A   Clear
12:55 AM 50.0 °F - 44.6 °F 82% 30.48 in 10.0 mi Calm Calm - N/A   Clear
1:15 AM 48.2 °F - 44.6 °F 87% 30.48 in 10.0 mi Calm Calm - N/A   Clear
1:35 AM 48.2 °F - 44.6 °F 87% 30.49 in 10.0 mi Calm Calm - N/A   Clear
1:55 AM 48.2 °F - 44.6 °F 87% 30.49 in 10.0 mi Calm Calm - N/A   Clear
2:15 AM 46.4 °F - 44.6 °F 93% 30.49 in 10.0 mi Calm Calm - N/A   Clear
2:35 AM 46.4 °F - 44.6 °F 93% 30.48 in 10.0 mi Calm Calm - N/A   Clear
2:55 AM 46.4 °F 44.3 °F 46.4 °F 100% 30.48 in 10.0 mi West 4.6 mph - N/A   Clear
3:15 AM 46.4 °F - 44.6 °F 93% 30.47 in 10.0 mi Calm Calm - N/A   Clear
3:35 AM 44.6 °F - 44.6 °F 100% 30.48 in 5.0 mi Calm Calm - N/A   Clear
3:55 AM 46.4 °F - 44.6 °F 93% 30.48 in 10.0 mi Calm Calm - N/A   Scattered Clouds
4:35 AM 44.6 °F 43.1 °F 44.6 °F 100% 30.48 in 10.0 mi WSW 3.5 mph - N/A   Scattered Clouds
4:55 AM 44.6 °F - 44.6 °F 100% 30.48 in 10.0 mi Calm Calm - N/A   Clear
5:15 AM 44.6 °F - 42.8 °F 93% 30.49 in 7.0 mi Calm Calm - N/A   Scattered Clouds
5:35 AM 44.6 °F - 44.6 °F 100% 30.50 in 5.0 mi Calm Calm - N/A   Scattered Clouds
5:53 AM 42.8 °F - 42.8 °F 100% 30.49 in 5.0 mi Calm Calm - N/A   Clear
5:55 AM 42.8 °F - 42.8 °F 100% 30.50 in 5.0 mi Calm Calm - N/A   Clear
6:53 AM 42.8 °F - 42.8 °F 100% 30.51 in 5.0 mi Calm Calm - N/A   Clear
7:53 AM 44.6 °F - 44.6 °F 100% 30.52 in 5.0 mi Calm Calm - N/A   Clear
8:30 AM 44.6 °F - 44.6 °F 100% 30.54 in 3.0 mi Calm Calm - N/A   Clear
8:40 AM 44.6 °F - 44.6 °F 100% 30.55 in 2.0 mi Calm Calm - N/A   Clear
8:53 AM 46.4 °F - 46.4 °F 100% 30.55 in 2.5 mi Calm Calm - N/A   Clear
9:05 AM 48.2 °F - 46.4 °F 93% 30.55 in 4.0 mi Calm Calm - N/A   Clear
9:53 AM 51.8 °F - 50.0 °F 94% 30.55 in 5.0 mi Calm Calm - N/A   Clear
10:53 AM 57.2 °F - 50.0 °F 77% 30.54 in 7.0 mi Calm Calm - N/A   Clear
11:53 AM 64.4 °F - 51.8 °F 64% 30.53 in 7.0 mi Calm Calm - N/A   Clear
12:53 PM 69.8 °F - 51.8 °F 53% 30.51 in 10.0 mi Calm Calm - N/A   Clear
1:53 PM 71.6 °F - 48.2 °F 43% 30.49 in 10.0 mi South 3.5 mph - N/A   Clear
2:53 PM 73.4 °F - 50.0 °F 44% 30.47 in 10.0 mi SSW 3.5 mph - N/A   Clear
3:53 PM 73.4 °F - 46.4 °F 38% 30.45 in 10.0 mi SSW 5.8 mph - N/A   Clear
4:53 PM 73.4 °F - 51.8 °F 47% 30.44 in 10.0 mi SW 3.5 mph - N/A   Clear
5:53 PM 69.8 °F - 50.0 °F 49% 30.45 in 10.0 mi SSW 4.6 mph - N/A   Clear
6:50 PM 66.2 °F - 50.0 °F 56% 30.45 in 10.0 mi South 5.8 mph - N/A   Clear
7:53 PM 66.2 °F - 50.0 °F 56% 30.46 in 10.0 mi West 3.5 mph - N/A   Clear
8:53 PM 62.6 °F - 50.0 °F 63% 30.47 in 10.0 mi WSW 3.5 mph - N/A   Clear
9:53 PM 59.0 °F - 50.0 °F 72% 30.48 in 10.0 mi West 5.8 mph - N/A   Clear
10:15 PM 59.0 °F - 51.8 °F 77% 30.48 in 10.0 mi SW 4.6 mph - N/A   Clear
10:35 PM 57.2 °F - 50.0 °F 77% 30.48 in 10.0 mi Calm Calm - N/A   Clear
10:55 PM 57.2 °F - 51.8 °F 82% 30.48 in 10.0 mi Calm Calm - N/A   Clear
11:15 PM 55.4 °F - 51.8 °F 88% 30.48 in 10.0 mi Calm Calm - N/A   Clear
11:35 PM 53.6 °F - 50.0 °F 88% 30.48 in 10.0 mi Calm Calm - N/A   Clear
11:55 PM 53.6 °F - 51.8 °F 94% 30.48 in 10.0 mi Calm Calm - N/A   Clear